Location: Newark
(48.3453°N, 0.5589°E)
Time: 21:48:36
(UTC+00:00)

A-11 Canister half - Pass Details

Date: 10 December 2019
Orbit: 1517 x 1683 km, 47.2° (Epoch: 28 January)

Event Time Altitude Azimuth Distance (km) Brightness Sun altitude
Rises 20:23:32 0° 285° (WNW) 4,920 12.5 -42.1°
Reaches altitude 10° 20:29:27 10° 259° (W) 3,942 11.7 -43.0°
Maximum altitude 20:32:55 12° 238° (WSW) 3,762 11.3 -43.6°
Drops below altitude 10° 20:36:22 10° 218° (SW) 3,939 11.3 -44.1°
Sets 20:42:20 0° 191° (S) 4,910 11.6 -45.1°
